Starlink 3329

operational
NORAD ID: 50827 Int'l Des: 2022-001 Owner: SPXS Country: US Constellation: starlink
LEOCIRCULAR

About Starlink 3329

Description loading...

Live Position

Loading 3D Globe...

Upcoming Passes

Altitude History

Altitude vs Time

uPlot chart will show altitude changes over time

Two-Line Element Set

1 50827U 22001AA 26048.95214872 -.00000022 00000-0 16692-4 0 9998
2 50827 53.2175 257.7255 0001737 85.4602 274.6589 15.08840646227423
Epoch: Feb 17, 2026 • Age: 20 hours

Current Status

Altitude 544.3 km
Velocity 7.60 km/s
Sub-Earth Point 49.12°N, 50.05°W
Launch Date Jan 6, 2022
Age 4.1 years
Type internet

Technical Details

Classification Payload
Mass 297.00 kg
Dry Mass 275.00 kg
Total Mass 297.00 kg
Length 0.20 m
Diameter 2.80 m
Span 9.00 m
Shape Box + pan
Manufacturer SPXS
Bus Type Starlink
Phase Status In Orbit
Owner/State SPXS/US

Large Constellations

Loading constellations...